Terug naar catalogus

STARLINK-37102

ActiefCommunicatieVLEO
NORAD 68183·PAYLOAD·🇺🇸 United States

Gelanceerd Mar 14, 2026 vanaf Vandenberg Space Force Base

Loading…

Volgende Passages (komende 24 uur)

TLE

VersSource: CelesTrak SupGP

Epoch: Sep 15, 2026, 03:08 UTC

1 68183C 26050S   26258.13104167  .00005042  00000+0  14894-3 0  2582
2 68183  53.1567 102.7568 0001141  85.8283 312.8164 15.34390803    17

Volg STARLINK-37102 in realtime met AllMySat

Download on the App Store